[[{"header":{"parameterUnit":"m.s-1","parameterCategory":1,"la1":30.2991,"la2":30.254,"lo1":-89.0895,"lo2":-89.0444,"dy":0.0017,"dx":0.0017,"nx":28,"ny":28,"refTime":"2024-04-07T09:00:00:Z","depth":0,"parameterNumber":2,"parameterNumberName":"U-component_of_WINDS"},"data":[0,0,0,0,0,0,0,0,0,0,0,0,0,0,0,0,0,0,0,0,0,0,0,0,0,0,0,0,0,0,0,0,0,0,0,0,0,0,0,0,0,0,0,0,0,0,0,0,0,0,0,0,0,0,0,0,0,0,-2.374,-2.374,0,-2.3766,-2.3767,-2.3767,-2.3752,-2.3751,-2.375,-2.3749,-2.3775,-2.3777,-2.3778,0,0,0,0,0,0,0,0,0,0,0,0,0,-2.3675,-2.3676,-2.374,-2.374,-2.374,-2.3766,-2.3767,-2.3767,-2.3752,-2.3751,-2.375,-2.3749,-2.3775,-2.3777,-2.3778,0,0,0,0,0,0,0,0,0,0,0,0,0,-2.3702,-2.3676,-2.374,-2.3736,-2.3736,-2.3766,-2.3767,-2.3767,-2.3752,-2.3751,-2.375,-2.3749,-2.3774,-2.3776,-2.3778,-2.3814,0,0,-2.3785,-2.3786,0,0,0,0,0,0,0,0,-2.3701,-2.3705,-2.3736,-2.3736,-2.3736,-2.3755,-2.3753,-2.3783,-2.3752,-2.3746,-2.3749,-2.3748,-2.3769,-2.3772,-2.3779,-2.3815,-2.3816,-2.3785,-2.3786,-2.3787,-2.3788,0,0,0,0,0,0,0,-2.3699,-2.3703,-2.375,-2.3737,-2.3737,-2.3733,-2.3735,-2.3759,-2.3763,-2.3746,-2.3745,-2.3749,-2.3769,-2.3777,-2.378,-2.3816,-2.3785,-2.3787,-2.3788,-2.3789,-2.3882,-2.3883,0,0,0,0,0,0,-2.3697,-2.3702,-2.3749,-2.3751,-2.3715,-2.3735,-2.3738,-2.375,-2.3763,-2.3764,-2.375,-2.3748,-2.3774,-2.3777,-2.378,-2.3822,-2.3787,-2.3789,-2.379,-2.3881,-2.3882,-2.3884,0,0,0,0,0,0,-2.3696,-2.3702,-2.3748,-2.3726,-2.3732,-2.3737,-2.3751,-2.3751,-2.3759,-2.3766,-2.3766,-2.3757,-2.3773,-2.3777,-2.3805,-2.3823,-2.379,-2.3792,-2.3879,-2.3881,-2.3883,-2.3906,0,0,0,0,0,0,-2.3694,-2.3701,-2.3715,-2.3727,-2.3733,-2.3773,-2.3752,-2.3752,-2.3763,-2.3761,-2.3773,-2.3774,-2.3773,-2.3802,-2.3808,-2.3825,-2.3793,-2.3878,-2.388,-2.3882,-2.3904,-2.3908,-2.3912,0,0,0,0,0,-2.3692,-2.372,-2.3716,-2.3721,-2.375,-2.3774,-2.3778,-2.3777,-2.3764,-2.3778,-2.3782,-2.3773,-2.382,-2.3805,-2.3811,-2.3829,-2.3877,-2.3879,-2.3882,-2.3902,-2.3907,-2.3912,0,0,0,0,0,0,-2.3709,-2.3721,-2.3717,-2.3749,-2.3761,-2.3772,-2.3788,-2.3783,-2.3798,-2.3795,-2.3793,-2.3795,-2.3825,-2.383,-2.3813,-2.3864,-2.3846,-2.3851,-2.3859,-2.3865,-2.3869,-2.3867,-2.3795,0,0,0,0,0,-2.3717,-2.3736,-2.3746,-2.3773,-2.378,-2.3783,-2.3794,-2.3792,-2.3803,-2.3808,-2.3814,-2.3826,-2.3843,-2.3854,-2.3871,-2.3905,-2.3907,-2.392,-2.3925,-2.3928,-2.3931,-2.3949,-2.3955,-2.3893,-2.3893,-2.3893,0,0,-2.3733,-2.3742,-2.3754,-2.3777,-2.3786,-2.3805,-2.3787,-2.3808,-2.3823,-2.3811,-2.3838,-2.3843,-2.3856,-2.3887,-2.3901,-2.3892,-2.3949,-2.3932,-2.3934,-2.3936,-2.3953,-2.3959,-2.3964,-2.3895,-2.3894,-2.3894,0,0,-2.3772,-2.3781,-2.3805,-2.3815,-2.3828,-2.3831,-2.3837,-2.3848,-2.3851,-2.3879,-2.387,-2.3887,-2.3917,-2.3926,-2.3935,-2.3978,-2.397,-2.3984,-2.4006,-2.4024,-2.4029,-2.4033,-2.4048,-2.4053,-2.3987,-2.3987,-2.3987,0,-2.379,-2.3819,-2.3818,-2.384,-2.3851,-2.3842,-2.3866,-2.3875,-2.3893,-2.3901,-2.3891,-2.3928,-2.3936,-2.3969,-2.398,-2.3987,-2.3994,-2.3982,-2.4028,-2.4032,-2.4036,-2.4051,-2.4056,-2.3988,-2.3988,-2.3988,-2.3988,0,-2.384,-2.3861,-2.3879,-2.3897,-2.3909,-2.3932,-2.3935,-2.3948,-2.3945,-2.3948,-2.3976,-2.3985,-2.4003,-2.4011,-2.4009,-2.4044,-2.4038,-2.4028,-2.401,-2.4044,-2.4057,-2.4063,-2.3991,-2.399,-2.399,-2.3989,0,0,-2.389,-2.3908,-2.3915,-2.3923,-2.3938,-2.3953,-2.3976,-2.3994,-2.4005,-2.4018,-2.4037,-2.4063,-2.4054,-2.4064,-2.4062,-2.4078,-2.4111,-2.4066,-2.4066,-2.4074,-2.415,-2.4157,-2.4163,-2.4107,-2.4108,-2.4109,-2.4149,0,-2.3929,-2.3969,-2.397,-2.4006,-2.4025,-2.4017,-2.4037,-2.4048,-2.4052,-2.4068,-2.4072,-2.4091,-2.4078,-2.4084,-2.4099,-2.4104,-2.4126,-2.4101,-2.4123,-2.4124,-2.4119,-2.417,-2.4177,-2.4214,-2.4154,-2.4155,-2.4156,0,-2.398,-2.3996,-2.4034,-2.4047,-2.4054,-2.4072,-2.4089,-2.4105,-2.4117,-2.4119,-2.413,-2.4127,-2.4149,-2.4132,-2.4163,-2.4146,-2.4155,-2.4159,-2.416,-2.4161,-2.4141,-2.4172,-2.4226,-2.4232,-2.4164,-2.4163,-2.4163,0,-2.4012,-2.4042,-2.4069,-2.4077,-2.4092,-2.4105,-2.4111,-2.4123,-2.4134,-2.4149,-2.4156,-2.4173,-2.4182,-2.4195,-2.4196,-2.4183,-2.4227,-2.4209,-2.4228,-2.4228,-2.4237,-2.4236,-2.4293,-2.4245,-2.4245,-2.4244,-2.4244,0,-2.4055,-2.4079,-2.4084,-2.41,-2.4127,-2.4127,-2.4153,-2.4159,-2.4169,-2.4186,-2.4181,-2.4197,-2.4198,-2.4214,-2.4215,-2.4241,-2.4245,-2.4246,-2.4246,-2.4246,-2.4246,-2.4252,-2.4249,-2.4246,-2.4246,-2.4245,-2.4245,0,-2.4095,-2.4099,-2.4128,-2.414,-2.4144,-2.4163,-2.4173,-2.4189,-2.4193,-2.4214,-2.422,-2.4225,-2.4244,-2.4247,-2.4269,-2.427,-2.43,-2.4298,-2.4296,-2.4295,-2.4314,-2.4312,-2.4376,-2.4384,-2.4331,-2.4331,-2.4332,0,-2.4122,-2.414,-2.4155,-2.4166,-2.4174,-2.4192,-2.4204,-2.4205,-2.4217,-2.4233,-2.4246,-2.4265,-2.428,-2.4311,-2.4317,-2.4334,-2.4331,-2.4352,-2.4334,-2.4333,-2.4331,-2.4329,-2.4331,-2.4356,-2.4356,-2.4357,-2.4357,0,-2.4169,-2.417,-2.4187,-2.4205,-2.4219,-2.4233,-2.4246,-2.4255,-2.4258,-2.4272,-2.4292,-2.4303,-2.4327,-2.4345,-2.4362,-2.4369,-2.4363,-2.4363,-2.4368,-2.4368,-2.4366,-2.4367,-2.4305,-2.4361,-2.4361,-2.4361,-2.436,-2.436,-2.4203,-2.4219,-2.4231,-2.425,-2.426,-2.4273,-2.4288,-2.4294,-2.4311,-2.433,-2.433,-2.4352,-2.4364,-2.4386,-2.4394,-2.4411,-2.4404,-2.4411,-2.4413,-2.4415,-2.4416,-2.4365,-2.4414,-2.4414,-2.4414,-2.4413,-2.4413,0,-2.4249,-2.4257,-2.4275,-2.4294,-2.4309,-2.4303,-2.4317,-2.433,-2.4349,-2.4361,-2.4377,-2.4399,-2.4417,-2.4425,-2.4443,-2.4455,-2.4453,-2.4459,-2.4458,-2.4459,-2.4422,-2.4415,-2.4461,-2.4461,-2.4461,-2.4461,-2.4461,-2.4461,-2.4275,-2.4302,-2.4305,-2.4336,-2.4344,-2.4365,-2.4374,-2.4385,-2.4395,-2.4421,-2.4436,-2.4441,-2.4451,-2.447,-2.4486,-2.4488,-2.4494,-2.4502,-2.4502,-2.4467,-2.4462,-2.4457,-2.4451,-2.4503,-2.4503,-2.4538,-2.4539,-2.4539]},{"header":{"parameterUnit":"m.s-1","parameterCategory":1,"la1":30.2991,"la2":30.254,"lo1":-89.0895,"lo2":-89.0444,"dy":0.0017,"dx":0.0017,"nx":28,"ny":28,"refTime":"2024-04-07T09:00:00:Z","depth":0,"parameterNumber":3,"parameterNumberName":"V-component_of_WINDS"},"data":[0,0,0,0,0,0,0,0,0,0,0,0,0,0,0,0,0,0,0,0,0,0,0,0,0,0,0,0,0,0,0,0,0,0,0,0,0,0,0,0,0,0,0,0,0,0,0,0,0,0,0,0,0,0,0,0,0,0,4.4481,4.4482,0,4.4564,4.4565,4.4566,4.4541,4.4539,4.4537,4.4536,4.4621,4.4625,4.4628,0,0,0,0,0,0,0,0,0,0,0,0,0,4.4302,4.4305,4.4481,4.4482,4.4483,4.4564,4.4565,4.4566,4.4541,4.4539,4.4537,4.4535,4.462,4.4624,4.4629,0,0,0,0,0,0,0,0,0,0,0,0,0,4.4382,4.4307,4.448,4.448,4.4481,4.4563,4.4565,4.4566,4.4542,4.4539,4.4537,4.4534,4.4618,4.4624,4.4629,4.4717,0,0,4.4647,4.465,0,0,0,0,0,0,0,0,4.4377,4.4388,4.4479,4.448,4.4481,4.4539,4.4533,4.4617,4.4542,4.4519,4.4536,4.4533,4.4596,4.4603,4.4624,4.4721,4.4725,4.4648,4.4651,4.4654,4.4655,0,0,0,0,0,0,0,4.4372,4.4385,4.4513,4.4481,4.4482,4.4476,4.4485,4.4549,4.4571,4.4521,4.4519,4.4529,4.4596,4.4619,4.4626,4.4726,4.4647,4.4653,4.4656,4.4658,4.49,4.4903,0,0,0,0,0,0,4.4365,4.438,4.4511,4.4516,4.4422,4.4482,4.4491,4.4523,4.457,4.4575,4.4531,4.4528,4.461,4.462,4.4629,4.4736,4.4654,4.4659,4.4662,4.4897,4.4901,4.4904,0,0,0,0,0,0,4.4362,4.4377,4.4507,4.4448,4.4464,4.4487,4.4524,4.4526,4.4549,4.4578,4.4582,4.4551,4.4609,4.4621,4.4696,4.4738,4.4662,4.4667,4.4894,4.4898,4.4902,4.4949,0,0,0,0,0,0,4.4357,4.4376,4.4409,4.4449,4.4467,4.4572,4.4526,4.453,4.4559,4.4556,4.4597,4.4602,4.4608,4.4687,4.4701,4.4745,4.4671,4.489,4.4896,4.4901,4.4944,4.4954,4.4964,0,0,0,0,0,4.435,4.4419,4.4411,4.4427,4.4509,4.4575,4.4585,4.4591,4.4563,4.4597,4.4616,4.46,4.4731,4.4695,4.4711,4.4757,4.4887,4.4894,4.49,4.4939,4.4952,4.4963,0,0,0,0,0,0,4.4383,4.4424,4.4416,4.4499,4.4534,4.4571,4.4613,4.4604,4.4648,4.4642,4.4647,4.4657,4.4733,4.4752,4.4711,4.4845,4.4805,4.4815,4.4829,4.4842,4.4852,4.4846,4.4676,0,0,0,0,0,4.44,4.445,4.4483,4.4553,4.4571,4.4589,4.4618,4.462,4.4656,4.467,4.4694,4.473,4.4779,4.4812,4.4859,4.4946,4.4956,4.4986,4.4996,4.5004,4.5013,4.5062,4.5076,4.4925,4.4925,4.4925,0,0,4.4436,4.4464,4.4495,4.4561,4.4588,4.464,4.4602,4.4658,4.4697,4.4679,4.4751,4.477,4.481,4.4892,4.493,4.4911,4.5056,4.5012,4.5019,4.5023,4.507,4.5084,4.5097,4.493,4.4929,4.4928,0,0,4.4527,4.4553,4.4615,4.4644,4.4685,4.4697,4.4712,4.4751,4.4763,4.4836,4.4824,4.487,4.4955,4.4984,4.5011,4.5115,4.5103,4.513,4.5182,4.523,4.5242,4.5253,4.5291,4.5304,4.5139,4.5139,4.5139,0,4.4566,4.4644,4.4648,4.4706,4.4736,4.4722,4.4786,4.4813,4.4868,4.4889,4.4867,4.4974,4.5,4.5089,4.5115,4.5136,4.5154,4.5125,4.524,4.5251,4.5261,4.5297,4.5311,4.5142,4.5142,4.5141,4.5141,0,4.469,4.4744,4.479,4.4844,4.4878,4.4938,4.4953,4.4987,4.4986,4.5001,4.5076,4.5107,4.516,4.5182,4.518,4.5272,4.5259,4.5238,4.5199,4.5278,4.5312,4.5326,4.5146,4.5145,4.5144,4.5144,0,0,4.4804,4.4861,4.4877,4.4902,4.4948,4.499,4.505,4.5103,4.5133,4.5172,4.5223,4.5296,4.5278,4.5308,4.531,4.5352,4.5434,4.5327,4.5328,4.5346,4.5538,4.5553,4.5569,4.5427,4.543,4.5432,4.5535,0,4.49,4.5006,4.5012,4.5108,4.5159,4.5148,4.52,4.5235,4.525,4.5296,4.5313,4.5365,4.5337,4.5355,4.5396,4.5416,4.5473,4.5408,4.5475,4.5478,4.5466,4.5587,4.5603,4.5699,4.5548,4.5551,4.5552,0,4.5026,4.5069,4.517,4.521,4.5232,4.5279,4.5329,4.5372,4.5411,4.542,4.5454,4.5451,4.5513,4.5472,4.5559,4.5514,4.5542,4.5556,4.556,4.5567,4.552,4.5598,4.573,4.5744,4.5573,4.5572,4.557,0,4.51,4.5183,4.5255,4.5276,4.5324,4.5358,4.538,4.5416,4.5448,4.5492,4.5512,4.5563,4.559,4.563,4.564,4.5609,4.5728,4.5686,4.5737,4.5737,4.5763,4.5761,4.5901,4.578,4.578,4.5779,4.5779,0,4.5206,4.5269,4.5289,4.5333,4.5403,4.5411,4.548,4.55,4.5533,4.5581,4.5574,4.562,4.5631,4.5679,4.5688,4.5759,4.5772,4.5781,4.5782,4.5782,4.5781,4.58,4.5794,4.5783,4.5782,4.5782,4.5781,0,4.5301,4.5316,4.5394,4.5434,4.5445,4.5495,4.5529,4.5572,4.5587,4.5649,4.5664,4.5687,4.5744,4.5758,4.5825,4.5832,4.5916,4.5911,4.5903,4.5903,4.5953,4.5949,4.6111,4.6134,4.5997,4.5998,4.5999,0,4.5368,4.5416,4.5461,4.5493,4.5516,4.5568,4.56,4.561,4.5644,4.5693,4.5731,4.5786,4.5831,4.5922,4.5945,4.5997,4.5994,4.6047,4.6001,4.6,4.5996,4.5993,4.5998,4.6056,4.6058,4.6059,4.606,0,4.5486,4.5492,4.5539,4.559,4.5629,4.5669,4.5708,4.5735,4.575,4.5789,4.5847,4.5882,4.5951,4.6007,4.6059,4.6082,4.6074,4.6074,4.6089,4.6089,4.6082,4.6087,4.5927,4.607,4.6069,4.6068,4.6068,4.6067,4.5569,4.5612,4.5651,4.5704,4.5734,4.5771,4.5814,4.5834,4.5883,4.594,4.5943,4.6006,4.6045,4.6115,4.6141,4.6191,4.6175,4.6195,4.6201,4.6206,4.6211,4.6074,4.62,4.62,4.62,4.6199,4.6199,0,4.5688,4.5712,4.5761,4.5816,4.5858,4.5847,4.589,4.5926,4.5982,4.6019,4.6064,4.6131,4.6185,4.6214,4.6268,4.6302,4.63,4.6316,4.6314,4.632,4.6222,4.6204,4.6317,4.6317,4.6317,4.6317,4.6317,4.6317,4.5754,4.5826,4.5837,4.5924,4.5949,4.6011,4.6036,4.607,4.61,4.6176,4.6221,4.6239,4.6273,4.633,4.638,4.6387,4.6407,4.6426,4.6431,4.6339,4.6327,4.6315,4.6299,4.643,4.643,4.6525,4.6526,4.6527]}]]